TimeMST,TemperatureF,Dew PointF,Humidity,Sea Level PressureIn,VisibilityMPH,Wind Direction,Wind SpeedMPH,Gust SpeedMPH,PrecipitationIn,Events,Conditions,WindDirDegrees,DateUTC
12:53 AM,-0.0,-6.0,76,30.53,10.0,ENE,8.1,-,N/A,,Clear,70,2013-01-19 07:53:00
1:53 AM,-2.0,-6.0,83,30.52,10.0,ENE,4.6,-,N/A,,Clear,60,2013-01-19 08:53:00
2:53 AM,-6.0,-9.0,87,30.55,10.0,North,3.5,-,N/A,,Clear,10,2013-01-19 09:53:00
3:53 AM,-5.1,-9.0,83,30.53,10.0,Calm,Calm,-,N/A,,Clear,0,2013-01-19 10:53:00
4:53 AM,-0.9,-6.0,79,30.53,10.0,NE,4.6,-,N/A,,Clear,50,2013-01-19 11:53:00
5:53 AM,-8.0,-11.9,83,30.64,10.0,Calm,Calm,-,N/A,,Clear,0,2013-01-19 12:53:00
6:53 AM,-6.0,-9.9,83,30.64,10.0,East,3.5,-,N/A,,Clear,90,2013-01-19 13:53:00
7:53 AM,-6.0,-11.0,79,30.70,10.0,Variable,3.5,-,N/A,,Clear,0,2013-01-19 14:53:00
8:53 AM,-0.9,-7.1,75,30.69,10.0,Calm,Calm,-,N/A,,Clear,0,2013-01-19 15:53:00
9:53 AM,6.1,-0.9,73,30.66,10.0,Calm,Calm,-,N/A,,Clear,0,2013-01-19 16:53:00
10:53 AM,9.0,1.9,73,30.64,10.0,SW,4.6,-,N/A,,Clear,220,2013-01-19 17:53:00
11:53 AM,12.0,3.0,67,30.62,10.0,South,9.2,-,N/A,,Clear,190,2013-01-19 18:53:00
12:53 PM,19.0,7.0,59,30.56,10.0,South,8.1,-,N/A,,Clear,190,2013-01-19 19:53:00
1:53 PM,23.0,8.1,53,30.54,10.0,SSW,3.5,-,N/A,,Clear,200,2013-01-19 20:53:00
2:53 PM,27.0,10.9,51,30.53,10.0,Calm,Calm,-,N/A,,Clear,0,2013-01-19 21:53:00
3:53 PM,30.0,10.9,45,30.50,10.0,Calm,Calm,-,N/A,,Clear,0,2013-01-19 22:53:00
4:53 PM,26.1,10.9,53,30.50,10.0,Calm,Calm,-,N/A,,Clear,0,2013-01-19 23:53:00
5:53 PM,19.0,6.1,57,30.57,10.0,Calm,Calm,-,N/A,,Clear,0,2013-01-20 00:53:00
6:53 PM,14.0,5.0,67,30.59,10.0,NNW,10.4,-,N/A,,Clear,340,2013-01-20 01:53:00
7:53 PM,12.0,1.9,64,30.60,10.0,NNW,6.9,-,N/A,,Clear,340,2013-01-20 02:53:00
8:53 PM,5.0,-0.0,80,30.61,10.0,East,6.9,-,N/A,,Clear,80,2013-01-20 03:53:00
9:53 PM,1.0,-4.0,79,30.59,10.0,ENE,5.8,-,N/A,,Clear,70,2013-01-20 04:53:00
10:53 PM,1.9,-2.9,80,30.56,10.0,Calm,Calm,-,N/A,,Clear,0,2013-01-20 05:53:00
11:53 PM,3.0,-2.9,76,30.54,10.0,Calm,Calm,-,N/A,,Clear,0,2013-01-20 06:53:00